Location: Newark
(51.7244°N, 11.1392°E)
Time: 14:35:20
(UTC+00:00)

N. Korean satellite - Visible Passes

Search period start: 05 December 2019 00:00
Search period end: 15 December 2019 00:00
Orbit: 456 x 506 km, 97.2° (Epoch: 04 December)

Date Brightness Start Highest point End Pass type
(mag) Time Alt. Az. Time Alt. Az. Time Alt. Az.
05 Dec 10.0 04:02:25 10° ENE 04:03:58 12° E 04:05:31 10° ESE visible
05 Dec 6.5 05:34:13 10° N 05:37:49 65° WNW 05:41:20 10° SSW visible
05 Dec 6.8 16:14:19 10° S 16:18:02 77° WSW 16:21:47 10° NNW visible
06 Dec 7.0 05:08:47 10° NNE 05:12:23 64° ESE 05:15:54 10° S visible
06 Dec 6.7 15:48:59 10° SSE 15:52:38 56° ENE 15:56:17 10° N visible
06 Dec 9.9 17:24:07 10° SW 17:26:22 15° W 17:28:36 10° NW visible
07 Dec 8.4 04:43:34 10° NNE 04:46:51 33° E 04:50:05 10° SSE visible
07 Dec 7.7 06:17:13 10° N 06:20:07 23° WNW 06:22:58 10° WSW visible
07 Dec 9.0 16:57:32 10° SSW 17:00:43 26° W 17:03:55 10° NW visible
08 Dec 9.5 04:18:41 10° NE 04:21:14 18° E 04:23:44 10° SE visible
08 Dec 6.9 05:51:27 10° N 05:54:50 41° WNW 05:58:10 10° SW visible
08 Dec 7.7 16:31:33 10° S 16:35:10 49° W 16:38:47 10° NNW visible
09 Dec 6.4 05:25:53 10° N 05:29:28 80° WNW 05:32:58 10° SSW visible
09 Dec 6.6 16:05:59 10° SSE 16:09:42 87° ENE 16:13:25 10° NNW visible
10 Dec 7.4 05:00:30 10° NNE 05:04:00 51° E 05:07:25 10° S visible
10 Dec 9.7 17:15:19 10° SW 17:17:56 18° W 17:20:32 10° NW visible
11 Dec 8.7 04:35:21 10° NE 04:38:26 27° E 04:41:26 10° SSE visible
11 Dec 7.4 06:08:44 10° N 06:11:48 27° WNW 06:14:48 10° SW visible
11 Dec 8.6 16:48:58 10° SSW 16:52:18 32° W 16:55:39 10° NNW visible
12 Dec 9.7 04:10:40 10° NE 04:12:46 15° E 04:14:50 10° SE visible
12 Dec 6.6 05:43:01 10° N 05:46:29 50° WNW 05:49:51 10° SSW visible
12 Dec 7.2 16:23:07 10° S 16:26:47 60° W 16:30:26 10° NNW visible
13 Dec 6.5 05:17:30 10° NNE 05:21:04 82° ESE 05:24:32 10° SSW visible
13 Dec 6.6 15:57:38 10° SSE 16:01:20 71° ENE 16:04:59 10° N visible
13 Dec 10.0 17:33:38 10° WSW 17:35:09 12° W 17:36:40 10° WNW visible
14 Dec 7.8 04:52:10 10° NNE 04:55:33 41° E 04:58:51 10° S visible
14 Dec 7.9 06:26:09 10° NNW 06:28:42 19° WNW 06:31:13 10° WSW visible
14 Dec 9.4 17:06:35 10° SW 17:09:28 21° W 17:12:21 10° NW visible
